Regional Weather Roundup
Issued by NWS

Home | Current Version | Previous Version | Text Only | Print | Product List | Glossary Off
Versions: 1 2 3 4 5 6 7 8 9 10 11 12 13 14 15 16 17 18 19 20 21 22 23 24 25 26 27 28 29 30 31 32 33 34 35 36 37 38 39 40 41 42 43 44 45 46 47 48 49 50

000
ASUS43 KFSD 290410
RWRSD

WEATHER ROUNDUP FOR SOUTH DAKOTA
NATIONAL WEATHER SERVICE SIOUX FALLS SD
1100 PM CDT SAT MAY 28 2016

NOTE: "FAIR" INDICATES FEW OR NO CLOUDS BELOW 12,000 FEET WITH NO
SIGNIFICANT WEATHER AND/OR OBSTRUCTIONS TO VISIBILITY.


SDZ001>005-009-010-012>017-290500-
NORTHWEST AND NORTH CENTRAL SOUTH DAKOTA

CITY           SKY/WX    TMP DP  RH WIND       PRES   REMARKS
BUFFALO          N/A     57  43  59 N12       29.95R
FAITH            N/A     55  50  83 W5        29.98R
MOBRIDGE       CLEAR     56  52  86 CALM      29.92R
$$

SDZ012>016-024>037-041>051-057-063-072>074-290500-
SOUTHWEST AND SOUTH CENTRAL SOUTH DAKOTA

CITY           SKY/WX    TMP DP  RH WIND       PRES   REMARKS
RAPID CTY ARPT CLOUDY    54  48  80 NW8       30.02R
PIERRE         PTCLDY    59  54  83 CALM      29.94R
CUSTER         CLEAR     44  42  93 N3        30.11R
ELLSWORTH AFB  CLOUDY    53  50  89 W7        30.02R
PHILIP         PTCLDY    56  52  86 W5        29.98R
PINE RIDGE     CLOUDY    50  47  89 W5        30.04R
WINNER         MOCLDY    61  56  83 S6        29.98R
$$

SDZ004>011-016>023-039-040-290500-
NORTHEAST SOUTH DAKOTA

CITY           SKY/WX    TMP DP  RH WIND       PRES   REMARKS
ABERDEEN       CLOUDY    57  55  93 SW6       29.91R
WATERTOWN      MOCLDY    60  56  86 W7        29.91R
BROOKINGS      PTCLDY    59  58  96 W6        29.91
SISSETON         N/A     61  57  87 NW9       29.87R
$$

SDZ017-020-022-023-036>040-048>070-290500-
SOUTHEAST SOUTH DAKOTA

CITY           SKY/WX    TMP DP  RH WIND       PRES   REMARKS
SIOUX FALLS    CLOUDY    60  57  89 W7        29.93R
HURON          CLEAR     57  56  96 S3        29.91R
CHAMBERLAIN    PTCLDY    62  60  94 S7        29.96R
MITCHELL       CLEAR     61  59  93 SW5       29.94R
YANKTON        PTCLDY    59  55  88 SW6       29.95R
$$

ABBREVIATIONS USED IN REMARKS
   TC - TEMPERATURE IN CELSIUS
  WCI - WIND CHILL INDEX
   HX - HEAT INDEX
  VSB - VISIBILITY




USA.gov is the U.S. government's official web portal to all federal, state and local government web resources and services.